| time (UTC) | temp C | wind direction | speed KPH | gust KPH | rain 1hr cm | rain 24hr cm | rain mn cm | humidity % | barometer mb |
| 20260504130613 | 4 | 50 | 0.0 | 0.0 | 0.00 | 0.00 | 0.00 | 65 | 1017.1 |
| 20260504110254 | 6 | 269 | 0.0 | 0.0 | 0.00 | 0.00 | 0.00 | 78 | 1017.0 |
| 20260504100222 | 7 | 269 | 0.0 | 0.0 | 0.00 | 0.00 | 0.00 | 76 | 1016.4 |
| 20260504080513 | 8 | 271 | 0.0 | 0.0 | 0.00 | 0.00 | 0.00 | 70 | 1016.7 |
| 20260504045954 | 12 | 178 | 1.6 | 11.3 | 0.00 | 0.00 | 0.00 | 43 | 1015.8 |
| 20260504044958 | 12 | 11 | 1.6 | 11.3 | 0.00 | 0.00 | 0.00 | 42 | 1015.5 |
| 20260504043938 | 12 | 66 | 0.0 | 0.0 | 0.00 | 0.00 | 0.00 | 39 | 1015.2 |
| 20260504042906 | 12 | 54 | 1.6 | 3.2 | 0.00 | 0.00 | 0.00 | 39 | 1015.1 |
| 20260504041917 | 12 | 339 | 0.0 | 8.0 | 0.00 | 0.00 | 0.00 | 39 | 1015.0 |
| 20260504040935 | 13 | 350 | 0.0 | 8.0 | 0.00 | 0.00 | 0.00 | 36 | 1014.8 |
| 20260504035954 | 13 | 319 | 0.0 | 8.0 | 0.00 | 0.00 | 0.00 | 36 | 1014.5 |
| 20260504033822 | 13 | 327 | 1.6 | 8.0 | 0.00 | 0.00 | 0.00 | 35 | 1013.9 |
| 20260504031747 | 14 | 342 | 0.0 | 0.0 | 0.00 | 0.00 | 0.00 | 35 | 1013.2 |
| 20260504025554 | 14 | 322 | 0.0 | 4.8 | 0.00 | 0.00 | 0.00 | 35 | 1012.5 |
| 20260504023347 | 15 | 350 | 0.0 | 8.0 | 0.00 | 0.00 | 0.00 | 33 | 1012.3 |
| 20260504021308 | 16 | 51 | 1.6 | 11.3 | 0.00 | 0.00 | 0.00 | 32 | 1012.0 |
| 20260504020328 | 16 | 313 | 1.6 | 6.4 | 0.00 | 0.00 | 0.00 | 31 | 1011.8 |
| 20260504015309 | 17 | 80 | 0.0 | 6.4 | 0.00 | 0.00 | 0.00 | 31 | 1011.5 |
| 20260504014329 | 17 | 22 | 1.6 | 8.0 | 0.00 | 0.00 | 0.00 | 31 | 1011.2 |
| 20260504013328 | 18 | 313 | 1.6 | 9.7 | 0.00 | 0.00 | 0.00 | 31 | 1011.1 |
| 20260504012307 | 18 | 340 | 1.6 | 9.7 | 0.00 | 0.00 | 0.00 | 30 | 1011.0 |
| 20260504011235 | 19 | 349 | 0.0 | 8.0 | 0.00 | 0.00 | 0.00 | 30 | 1010.8 |
| 20260504010250 | 19 | 329 | 0.0 | 3.2 | 0.00 | 0.00 | 0.00 | 30 | 1010.6 |
| 20260504005308 | 19 | 82 | 1.6 | 0.0 | 0.00 | 0.00 | 0.00 | 31 | 1010.4 |
| 20260504004304 | 20 | 352 | 0.0 | 8.0 | 0.00 | 0.00 | 0.00 | 30 | 1010.4 |
| 20260504003245 | 20 | 292 | 1.6 | 11.3 | 0.00 | 0.00 | 0.00 | 30 | 1010.4 |
| 20260504002310 | 20 | 55 | 0.0 | 11.3 | 0.00 | 0.00 | 0.00 | 30 | 1010.2 |
| 20260504000200 | 20 | 326 | 1.6 | 11.3 | 0.00 | 0.00 | 0.00 | 28 | 1010.1 |
| 20260503234045 | 21 | 338 | 1.6 | 8.0 | 0.00 | 0.00 | 0.00 | 27 | 1009.7 |
| 20260503233043 | 21 | 340 | 1.6 | 8.0 | 0.00 | 0.00 | 0.00 | 27 | 1009.7 |
| 20260503232053 | 21 | 315 | 1.6 | 11.3 | 0.00 | 0.00 | 0.00 | 26 | 1009.4 |
| 20260503231115 | 22 | 352 | 1.6 | 11.3 | 0.00 | 0.00 | 0.00 | 24 | 1009.3 |
| 20260503225002 | 23 | 321 | 0.0 | 1.6 | 0.00 | 0.00 | 0.00 | 23 | 1009.1 |
| 20260503223933 | 23 | 324 | 0.0 | 0.0 | 0.00 | 0.00 | 0.00 | 24 | 1009.2 |
| 20260503220703 | 22 | 345 | 1.6 | 8.0 | 0.00 | 0.00 | 0.00 | 24 | 1009.3 |
| 20260503214453 | 23 | 339 | 1.6 | 11.3 | 0.00 | 0.00 | 0.00 | 24 | 1009.3 |
| 20260503213447 | 22 | 316 | 1.6 | 11.3 | 0.00 | 0.00 | 0.00 | 23 | 1009.3 |
| 20260503212428 | 23 | 331 | 0.0 | 8.0 | 0.00 | 0.00 | 0.00 | 23 | 1009.3 |
| 20260503211445 | 23 | 327 | 0.0 | 3.2 | 0.00 | 0.00 | 0.00 | 23 | 1009.3 |
| 20260503210426 | 23 | 325 | 0.0 | 4.8 | 0.00 | 0.00 | 0.00 | 22 | 1009.5 |
| 20260503205445 | 23 | 292 | 0.0 | 1.6 | 0.00 | 0.00 | 0.00 | 20 | 1009.5 |
| 20260503202157 | 22 | 261 | 0.0 | 3.2 | 0.00 | 0.00 | 0.00 | 20 | 1009.8 |
| 20260503201136 | 22 | 324 | 0.0 | 1.6 | 0.00 | 0.00 | 0.00 | 21 | 1010.0 |
| 20260503200124 | 22 | 318 | 0.0 | 0.0 | 0.00 | 0.00 | 0.00 | 23 | 1010.0 |
| 20260503195121 | 22 | 236 | 0.0 | 4.8 | 0.00 | 0.00 | 0.00 | 21 | 1010.2 |
| 20260503194127 | 22 | 88 | 0.0 | 0.0 | 0.00 | 0.00 | 0.00 | 23 | 1010.4 |
| 20260503193130 | 21 | 285 | 1.6 | 1.6 | 0.00 | 0.00 | 0.00 | 21 | 1010.5 |
| 20260503191028 | 21 | 342 | 1.6 | 6.4 | 0.00 | 0.00 | 0.00 | 22 | 1011.0 |
| 20260503190030 | 21 | 0 | 0.0 | 4.8 | 0.00 | 0.00 | 0.00 | 22 | 1011.2 |
| 20260503185007 | 21 | 341 | 0.0 | 8.0 | 0.00 | 0.00 | 0.00 | 23 | 1011.3 |
| 20260503183952 | 21 | 260 | 0.0 | 4.8 | 0.00 | 0.00 | 0.00 | 24 | 1011.4 |
| 20260503181837 | 20 | 293 | 0.0 | 8.0 | 0.00 | 0.00 | 0.00 | 25 | 1011.7 |
| 20260503180859 | 20 | 329 | 0.0 | 8.0 | 0.00 | 0.00 | 0.00 | 25 | 1012.0 |
| 20260503175904 | 20 | 232 | 0.0 | 3.2 | 0.00 | 0.00 | 0.00 | 25 | 1012.3 |
| 20260503174918 | 20 | 336 | 0.0 | 1.6 | 0.00 | 0.00 | 0.00 | 26 | 1012.5 |
| 20260503173913 | 20 | 336 | 0.0 | 6.4 | 0.00 | 0.00 | 0.00 | 26 | 1012.6 |
| 20260503172918 | 20 | 244 | 1.6 | 8.0 | 0.00 | 0.00 | 0.00 | 26 | 1012.6 |
| 20260503171938 | 20 | 346 | 0.0 | 8.0 | 0.00 | 0.00 | 0.00 | 24 | 1012.8 |
| 20260503170948 | 20 | 339 | 0.0 | 3.2 | 0.00 | 0.00 | 0.00 | 26 | 1012.8 |
| 20260503150827 | 11 | 292 | 0.0 | 0.0 | 0.00 | 0.00 | 0.00 | 47 | 1013.4 |